Regional Weather Roundup
Issued by NWS

Home | Current Version | Previous Version | Graphics & Text | Print | Product List | Glossary On
Versions: 1 2 3 4 5 6 7 8 9 10 11 12 13 14 15 16 17 18 19 20 21 22 23 24 25 26 27 28 29 30 31 32 33 34 35 36 37 38 39 40 41 42 43 44 45 46 47 48 49 50
000
ASUS45 KBOU 131907
RWRCO

WEATHER ROUNDUP FOR COLORADO
NATIONAL WEATHER SERVICE DENVER/BOULDER CO
1200 PM MST SAT FEB 13 2016

NOTE: "FAIR" INDICATES FEW OR NO CLOUDS BELOW 12000 FEET WITH NO
SIGNIFICANT WEATHER AND/OR OBSTRUCTIONS TO VISIBILITY.

COZ001>005-013-030-031-132000-
...NORTHWEST COLORADO...

CITY           SKY/WX    TMP DP  RH WIND       PRES   REMARKS
CRAIG          FAIR      28  19  69 CALM      30.22F
HAYDEN         FAIR      25  19  80 CALM      30.21F
MEEKER         FAIR      36  22  56 CALM      30.22S
MOUNT WERNER   NOT AVBL
STEAMBOAT SPGS FAIR      27  18  69 CALM      30.21F
WALDEN         FAIR      43  10  26 S15       30.17F
$$

COZ006>008-011-132000-
...WEST CENTRAL VALLEYS...

CITY           SKY/WX    TMP DP  RH WIND       PRES   REMARKS
GRAND JUNCTION FAIR      38  29  70 N5        30.25F
MONTROSE       FAIR      46  26  45 CALM      30.24F
EAGLE          PTSUNNY   36  23  60 CALM      30.24F
RIFLE          FAIR      33  21  61 CALM      30.25F
DELTA          FAIR      45  30  55 W7        30.24F
NUCLA          NOT AVBL
$$

COZ017>023-064>068-132000-
...SOUTHWEST COLORADO...

CITY           SKY/WX    TMP DP  RH WIND       PRES   REMARKS
DURANGO        FAIR      40  24  53 NE5       30.26F
CORTEZ         FAIR      49  29  46 SW5       30.26F
PAGOSA SPRINGS FAIR      49  20  31 S7        30.27F
TELLURIDE      FAIR      50   7  17 W3G18     30.33F
WOLF CREEK PAS FAIR      34  14  44 SW20G28   30.41F WCI  22
$$

COZ009-010-012-014-032>034-037-058>063-132000-
...CENTRAL COLORADO...

CITY           SKY/WX    TMP DP  RH WIND       PRES   REMARKS
ASPEN          FAIR      44  21  40 N10       30.20F
BUENA VISTA    FAIR      53   2  13 SW13G33   30.16F
COPPER MTN     FAIR      36  -2  20 W18G29    30.31F
BERTHOUD PASS  FAIR      28  19  69 W51G60    30.20S WCI   9
COTTONWOOD PAS FAIR      46 -13   8 SW31G53   30.19F
GUNNISON       FAIR      10  10 100 SE3       30.36F
KREMMLING      FAIR      23  12  63 CALM      30.24F
LEADVILLE      FAIR      42  -1  16 W13G23    30.23F
MONARCH PASS   FAIR      32   7  34 W41G49    30.41F WCI  16
SALIDA         NOT AVBL
SUNLIGHT       FAIR      37  14  38 CALM      30.32F
WILKERSON PASS FAIR      39  -2  17 W13G22    30.24F
$$

COZ069>075-132000-
...SAN LUIS VALLEY/SANGRE DE CRISTO MOUNTAINS...

CITY           SKY/WX    TMP DP  RH WIND       PRES   REMARKS
ALAMOSA        FAIR      50  22  33 CALM      30.22F
LA VETA PASS   FAIR      45  19  36 SW12G25   30.23F
SAGUACHE       FAIR      45  23  42 S3        30.24F
$$

COZ035-036-038>040-132000-
...NORTHERN COLORADO FRONT RANGE...

CITY           SKY/WX    TMP DP  RH WIND       PRES   REMARKS
DENVER INTL AP PTSUNNY   38  32  79 E6        30.00F
DMNS CITY PARK   N/A     50  35  55 NE16      29.98F
AURORA         PTSUNNY   65  14  14 N7        30.00F
FRONT RANGE AP FOG       36  32  87 NE6       30.02F VSB 1/2
ERIE MUNI ARPT FAIR      38  38 100 CALM      30.00F
BOULDER MUN AP FAIR      37  37 100 S3        30.00F
CENTENNIAL     PTSUNNY   64  18  17 VRB5      29.99F
BROOMFIELD     PTSUNNY  N/A N/A N/A W20G29    30.01S
FORT COLLINS   CLOUDY    30  30 100 SW6       30.02F VSB 1/2 WCI  24
LONGMONT       FAIR      42  36  79 E5        30.01F
$$

COZ041-046-047-076>085-087-088-132000-
...PIKES PEAK/PALMER DIVIDE AND SOUTHERN FOOTHILLS...

CITY           SKY/WX    TMP DP  RH WIND       PRES   REMARKS
COLO. SPRINGS  PTSUNNY   58  22  24 E8        30.04F
A. F. ACADEMY  FAIR      57  21  24 SW8       30.03F
SCHRIEVER AFB  FAIR      57  17  20 SW7       30.05F
ELLICOTT       LGT RAIN N/A N/A N/A W7        30.03F
FALCON         FAIR      54  18  24 CALM      30.08F
FORT CARSON    FAIR      52  33  48 NE7       30.01F
LIMON          FAIR      36  33  89 CALM      30.02F
MONUMENT HILL  FAIR      46  19  34 SW5       30.07F
TRINIDAD       FAIR      72  10   9 W15       30.06F
$$

COZ042>045-048>051-090-091-132000-
...NORTHEAST COLORADO...

CITY           SKY/WX    TMP DP  RH WIND       PRES   REMARKS
GREELEY ARPT   CLOUDY    32  30  93 CALM      30.03F VSB 1/4
AKRON          FOG       33  33 100 NW6       30.01F VSB 1   WCI  28
BURLINGTON     CLOUDY    30  27  88 S13       30.06F FOG     WCI  20
WRAY           CLOUDY    32  29  89 S12       30.06F WCI  23
STERLING       CLOUDY    34  32  93 SW6       30.02F FOG     WCI  29
HOLYOKE        CLOUDY    34  32  93 S13       30.04F WCI  25
FORT MORGAN    FOG       31  31  97 W6        30.02F VSB 1/4 WCI  26
$$

COZ086-089-092>099-132000-
...SOUTHEAST COLORADO...

CITY           SKY/WX    TMP DP  RH WIND       PRES   REMARKS
PUEBLO         FAIR      41  31  67 E3        30.02F
LA JUNTA       FAIR      39  30  70 VRB3      30.05F
LAMAR          CLOUDY    35  29  78 VRB5      30.06F WCI  31
SPRINGFIELD      N/A     62  30  29 VRB3      30.01F
$$



USA.gov is the U.S. government's official web portal to all federal, state and local government web resources and services.